Погода в Пуркаеве

Россия / Республика Мордовия     54°22′28″N   46°38′02″E
темп.,
°C
ветер,
м/с
пор.,
м/с
влажн.,
%
обл.,
%
осадки,
мм/ч
давл.,
гПа
погр.,
м
4 декабря, сб
сб400:00+3ююз71694100 0.1 1009569
03:00+4ююз9198668 0.1 1007676
06:00+5ююз102074100 0.0 1004807
09:00+3ююз91891100 1.1 1004975
12:000з41197100 1.8 1007678
15:000зюз51083100 1.8 1008551
18:00−1зюз5118489 0.0 1010478
21:00−2зюз51087100 0.0 1011622
5 декабря, вс
вс500:00−3з498880 0.0 1012576
03:00−4зюз498773 0.0 1014602
06:00−4з498326 0.0 1015601
09:00−3з378443 0.0 1017570
12:00−2зсз356843 0.0 1017636
15:00−2зсз2468100 0.0 1018466
18:00−2зсз1274100 0.0 1019129
21:00−3с007511 0.0 102032
6 декабря, пн
пн600:00−4зюз00795 0.0 102110
03:00−4зюз00828 0.0 102210
06:00−4юв0083100 0.0 102310
09:00−4ююв1182100 0.0 102516
12:00−3юв1274100 0.0 1025187
15:00−3вюв2379100 0.0 102666
18:00−3юв2483100 0.0 1028120
21:00−3юв3786100 0.0 1027281
7 декабря, вт
вт700:00−4юв388468 0.0 1029307
03:00−4юв498682 0.0 1029322
06:00−5юв51187100 0.0 1028351
09:00−4юв61380100 0.0 1028458
12:00−3юв71569100 0.0 1027558
15:00−3юв71568100 0.0 1025556
18:00−3юв81793100 0.4 1024517
21:00−2ююв81891100 2.9 1022601
8 декабря, ср
ср800:000ю71792100 0.4 1021583
03:00+2ю71790100 0.6 1020529
06:00+2ю71790100 0.0 1019523
09:00+2ю61790100 0.0 1020496
12:00+3ю61590100 0.0 1020507
15:00+3ю41092100 0.0 1020293
18:00+2ююв51194100 0.0 1020369
21:00+1ююв51491100 0.0 1021386